Preview of NWS' New Version of Forecast
This preview is not operational and should not be used for support decisions.

Regional Weather Roundup (RWR)

Issued by National Weather Service (NWS)

                            
000
ASUS44 KJAN 200710
RWRMS 

MISSISSIPPI HOURLY WEATHER ROUNDUP
NATIONAL WEATHER SERVICE JACKSON MS
200 AM CDT SAT APR 20 2019

NOTE: "FAIR: INDICATES FEW OR NO CLOUDS BELOW 12,000 FEET WITH NO
SIGNIFICANT WEATHER AND/OR OBSTRUCTIONS TO VISIBILITY.

MSZ001>002-007>008-010>013-018>021-025>028-034>036-200800-
NORTHWEST MISSISSIPPI
  
CITY           SKY/WX    TMP DP  RH WIND       PRES   REMARKS
BATESVILLE       N/A     48  43  81 W6        29.81S                  
CLARKSDALE     CLEAR     52  41  66 W13       29.85S                  
CLEVELAND      FAIR      51  43  75 W7        29.87S                  
GREENWOOD      CLOUDY    52  42  69 SW7       29.85F                  
GREENVILLE     FAIR      52  43  71 W9        29.88S                  
OLIVE BRANCH   CLEAR     48  37  66 NW13G20   29.77S                  
OXFORD         FAIR      45  43  93 W7        29.80S                  
TUNICA           N/A     48  36  61 NW12      29.83S                  
WINONA         CLOUDY    48  43  81 W3        29.84S                  
$$

MSZ003>006-009-014>017-022>024-029>033-037>039-200800-
NORTHEAST MISSISSIPPI
  
CITY           SKY/WX    TMP DP  RH WIND       PRES   REMARKS
ABERDEEN       CLOUDY    46  46 100 SW8       29.77F                  
COLUMBUS AFB   MOCLDY    46  44  92 SW8       29.76F                  
CORINTH        CLOUDY    48  43  81 NW8       29.70F                  
GOLDN TRIANGLE CLOUDY    46  44  93 W5        29.79F                  
STARKVILLE     CLOUDY    45  43  93 SW3       29.81F                  
TUPELO         CLOUDY    47  43  86 W10G18    29.74F                  
$$

MSZ040-058-200800-
CENTRAL MISSISSIPPI
  
CITY           SKY/WX    TMP DP  RH WIND       PRES   REMARKS
JACKSON INTL   CLOUDY    50  43  77 SW6       29.89F                  
JACKSON HAWKNS MOCLDY    49  44  83 SW5       29.90F                  
MADISON        FAIR      48  43  81 SW8       29.88F                  
MERIDIAN KEY   CLOUDY    49  43  80 SW5       29.85F                  
MERIDIAN NAS   NOT AVBL                                               
RAYMOND        FAIR      46  46 100 CALM      29.90F                  
VICKSBURG VKS  SUNNY     46  46 100 CALM      29.92F FOG              
$$

MSZ059>079-200800-
SOUTH MISSISSIPPI
  
CITY           SKY/WX    TMP DP  RH WIND       PRES   REMARKS
HATTIESBURG    CLOUDY    51  44  77 VRB6      29.93F                  
LAUREL         CLOUDY    50  45  83 W8        29.89F                  
MCCOMB         FAIR      49  46  90 CALM      29.93F                  
NATCHEZ        FAIR      51  45  79 W5        29.94F                  
PINE BELT      CLOUDY    49  46  90 VRB3      29.92F                  
$$

MSZ080>082-200800-
COASTAL MISSISSIPPI
  
CITY           SKY/WX    TMP DP  RH WIND       PRES   REMARKS
BILOXI         CLOUDY    54  46  74 W6        29.94F                  
PASCAGOULA     CLOUDY    52  46  80 W3        29.94F                  
GULFPORT       CLOUDY    52  46  80 W6        29.94F                  
$$

LAZ007>009-015>016-023>026-200800-
NORTHEAST LOUISIANA
  
CITY           SKY/WX    TMP DP  RH WIND       PRES   REMARKS
BASTROP        FAIR      46  46  97 W5        29.95S                  
TALLULAH/VBURG FAIR      51  46  83 VRB3      29.92F                  
VIDALIA        FAIR      53  45  76 W8        29.94S                  
$$